Terminal Aerodrome Forecast
Issued by NWS Cleveland, OH

Home | Current Version | Previous Version | Graphics & Text | Print | Product List | Glossary On
Versions: 1 2 3 4 5 6 7 8 9 10 11 12
000
FTUS41 KCLE 011731
TAFYNG
TAF
KYNG 011731Z 0118/0218 29008KT P6SM BKN025
      TEMPO 0118/0120 SCT025 BKN035
     FM012000 32006KT P6SM BKN035
     FM020200 VRB03KT P6SM SCT035
     FM020800 VRB03KT 4SM BR OVC025
     FM021400 07005KT P6SM SCT025=

USA.gov is the U.S. government's official web portal to all federal, state and local government web resources and services.